{"data":{"norad_id":60258,"epoch":"2026-05-25T03:55:07.321152Z","epoch_age_seconds":54154,"freshness":"FRESH","line1":"1 60258U 24131D   26145.16327918  .00001044  00000+0  47366-4 0  9995","line2":"2 60258  53.1606  57.4613 0001283  82.8850 277.2297 15.30194676103423","mean_motion":15.30194676,"eccentricity":0.0001283,"inclination_deg":53.1606,"raan_deg":57.4613,"arg_perigee_deg":82.885,"mean_anomaly_deg":277.2297,"bstar":4.7366e-5,"rev_number":10342,"period_min":94.105673126783,"perigee_km":474.35167885972,"apogee_km":476.11025307979,"semimajor_km":6853.3679659698,"source":"CELESTRAK","updated_at":"2026-05-25T13:38:19.198647Z"}}